Wind_Speed
17 18 16 13 13 13 10 11 10 10 10 9 7 8 8 8 6 7 6 5 5 4
19 18 19 17 13 13 12 11 12 12 11 11 12 11 10 10 10 9 8 6 6 5
19 19 18 18 16 14 13 13 14 14 15 14 12 12 11 11 11 11 11 9 8 7
18 20 20 20 17 16 15 14 14 13 13 13 14 15 15 14 13 13 11 12 12 12
17 19 21 21 19 15 15 15 14 15 18 16 14 17 19 18 15 16 12 11 12 11
18 18 20 19 19 17 16 16 16 16 19 18 18 16 18 19 18 15 13 12 13 13
21 17 17 17 17 17 15 16 15 15 16 17 16 16 16 16 17 17 18 15 15 16
24 19 16 17 16 16 16 17 15 13 14 15 14 15 16 16 18 19 18 18 19 15
23 21 17 13 14 17 16 17 16 14 13 13 15 15 17 17 20 20 20 19 17 17
27 24 17 15 14 16 17 16 17 16 15 13 13 14 14 15 17 21 21 21 19 18
24 26 22 22 16 14 17 19 18 16 14 13 14 15 16 14 12 16 19 20 18 18
14 15 13 14 11 12 12 16 16 11 9 10 10 11 14 14 14 11 14 19 21 20
6 10 10 13 14 7 9 13 13 10 9 12 15 16 15 14 15 13 11 13 15 14
6 6 7 11 11 13 16 20 21 23 21 21 23 21 16 15 15 12 16 14 16 13
Wind_Direction
227 224 223 223 235 237 249 239 246 258 267 263 265 284 280 267 283 284 291 294 315 341
231 227 226 233 241 237 249 245 247 255 256 265 266 269 280 266 267 276 272 276 278 292
235 230 228 234 246 250 242 250 256 259 255 257 261 257 270 270 266 273 269 263 266 282
235 231 235 243 245 244 242 247 250 256 244 255 256 256 262 271 266 264 270 265 266 271
234 235 238 243 245 241 238 243 254 251 243 253 265 253 259 264 263 262 266 275 271 272
232 235 237 243 246 245 244 243 244 247 245 250 261 266 262 258 264 247 266 270 262 260
233 236 237 240 242 242 245 242 242 249 244 246 259 261 256 264 253 253 258 259 271 262
236 235 233 236 238 240 248 247 248 250 247 244 252 252 262 266 263 265 261 264 270 274
246 238 235 235 243 246 246 244 243 253 259 252 255 260 259 266 272 268 265 267 268 265
229 226 234 234 243 239 244 245 245 251 254 260 262 265 274 278 273 261 266 265 267 269
220 230 239 239 255 254 240 238 238 249 256 257 259 263 267 271 272 261 261 268 266 270
219 226 229 212 214 227 233 237 239 229 234 252 258 279 268 263 266 280 251 243 249 262
198 215 216 230 223 221 249 255 258 257 270 279 274 282 281 284 282 280 268 239 241 244
201 199 240 241 258 282 273 262 265 273 271 259 262 273 278 278 283 275 260 245 241 240
Height
1589 1591 1594 1596 1598 1600 1601 1602 1603 1604 1605 1605 1606 1606 1607 1607 1608 1608 1608 1607 1607 1606
1586 1588 1591 1594 1595 1597 1598 1599 1600 1601 1602 1602 1603 1604 1604 1605 1605 1606 1606 1606 1606 1606
1584 1586 1589 1591 1593 1594 1595 1596 1597 1598 1599 1600 1601 1602 1603 1603 1603 1603 1604 1605 1605 1605
1580 1583 1586 1588 1589 1590 1592 1593 1594 1595 1596 1596 1597 1599 1599 1600 1601 1601 1601 1602 1602 1603
1577 1579 1581 1583 1585 1586 1588 1589 1590 1591 1592 1593 1594 1594 1596 1597 1598 1599 1600 1599 1599 1600
1574 1575 1577 1579 1581 1582 1584 1585 1586 1587 1588 1589 1590 1591 1592 1593 1594 1596 1597 1597 1597 1597
1570 1572 1574 1576 1577 1579 1581 1581 1582 1583 1584 1585 1587 1588 1589 1590 1591 1593 1594 1595 1595 1596
1566 1568 1569 1572 1574 1576 1577 1578 1580 1579 1580 1581 1583 1584 1586 1586 1588 1590 1591 1592 1592 1593
1561 1565 1567 1568 1571 1573 1574 1575 1576 1577 1578 1578 1580 1581 1582 1583 1584 1585 1586 1587 1588 1589
1556 1559 1563 1564 1566 1570 1571 1572 1574 1575 1576 1576 1577 1577 1577 1577 1578 1580 1583 1583 1584 1585
1552 1553 1555 1560 1561 1564 1567 1569 1570 1572 1573 1572 1573 1573 1573 1574 1574 1574 1575 1578 1580 1581
1547 1550 1544 1553 1556 1560 1562 1564 1566 1566 1568 1569 1569 1569 1569 1569 1570 1570 1571 1573 1573 1575
1543 1544 1548 1551 1553 1556 1560 1563 1564 1564 1563 1565 1565 1565 1566 1566 1566 1566 1567 1569 1570 1570
1547 1544 1546 1548 1550 1553 1556 1558 1559 1558 1558 1558 1559 1560 1558 1558 1559 1560 1564 1566 1567 1566